Location: Izdebno
(52.6670°N, 16.2170°E)
Time: 04:43:12
(UTC+02:00)

Transit 2A - Pass Details

Date: 27 February 2024
Orbit: 596 x 956 km, 66.7° (Epoch: 21 April)

Event Time Altitude Azimuth Distance (km) Brightness Sun altitude
Rises 21:21:54 0° 262° (W) 2,839 9.5 -34.3°
Reaches altitude 10° 21:24:29 10° 277° (W) 1,942 8.7 -34.7°
Enters shadow 21:26:24 19° 300° (WNW) 1,442 8.0 -34.9°
Maximum altitude 21:28:01 24° 332° (NNW) 1,284 - -35.1°
Drops below altitude 10° 21:31:40 10° 26° (NNE) 2,015 - -35.5°
Sets 21:34:24 0° 41° (NE) 2,972 - -35.8°
